TIME,DELAY(SENSOR),PRES,T(CTD),SAL,OXYGEN,RAWTEMP,T(OPTODE),TCPHASE,FLUOR,BETA(BETA700),BETA(BETA412),BETA(BETA440),CDOM,C(CSC),ED(ED412.40),ED(ED444.00),ED(ED489.70),ED(ED554.30),LU(LU411.80),LU(LU443.40),LU(LU489.60),LU(LU554.10),COMP,TILTX,TILTX(TILTY),CHECK
1352063800,5809,496.4599914550781000,6.8049998283386230,34.1203994750976560,87.8405532836914000,593.6434936523438000,6.7894129753112790,47.9142189025878900,53,103,90,80,79,15204,2147749988,2147423085,2148006592,2147870701,2147630098,2147078921,2148246582,2147202578,1741,4,13,8223
1352063903,5812,485.8699951171875000,7.0763998031616210,34.1113014221191400,94.5746231079101600,585.6018066406250000,7.0484051704406740,47.0490913391113300,51,104,88,81,78,15209,2147742637,2147424228,2148003629,2147871972,2147628315,2147082569,2148242066,2147201344,1364,4,13,53984
1352064006,5808,475.0599975585937500,7.1325998306274410,34.1123008728027340,98.8414001464843800,583.2169189453125000,7.1250991821289060,46.5536689758300800,51,104,87,79,78,15205,2147748672,2147423634,2148005869,2147872868,2147627483,2147080347,2148239588,2147200649,1667,4,13,56486
1352064125,5810,463.7500000000000000,7.2351999282836910,34.1052017211914060,103.9151992797851600,580.3355102539062000,7.2176899909973145,45.9785804748535160,51,107,88,80,78,15208,2147746889,2147423021,2148002075,2147870674,2147626925,2147079442,2148242880,2147203035,1637,4,13,51478
1352064264,5810,452.3099975585937500,7.3246998786926270,34.1036987304687500,108.0863037109375000,577.4530029296875000,7.3102421760559080,45.5058593750000000,52,106,86,80,78,15208,2147745161,2147424109,2148002523,2147870802,2147628242,2147088374,2148242788,2147202240,784,5,13,145
1352064393,5810,442.0199890136719000,7.4521999359130860,34.0988006591796900,113.1390991210937500,573.6680297851562000,7.4316558837890625,44.9402084350585940,50,105,88,81,77,15206,2147743725,2147419776,2148001883,2147870345,2147624429,2147084370,2148240758,2147204086,1296,4,13,55999
1352064544,5808,430.4899902343750000,7.6444997787475590,34.1092987060546900,116.1062011718750000,567.5484008789062000,7.6276969909667970,44.5487899780273440,51,106,85,80,77,15207,2147741531,2147421184,2148002395,2147870601,2147623067,2147087826,2148241124,2147201572,1029,4,13,16078
1352064703,5808,419.0499877929687500,7.9597997665405270,34.1130981445312500,122.6809997558593800,557.8416748046875000,7.9379811286926270,43.7594490051269500,51,104,88,80,76,15207,2147744630,2147421485,2147999972,2147871149,2147623122,2147087158,2148236150,2147201846,307,4,13,57220
1352064828,5809,408.6799926757812500,8.1062002182006840,34.1094017028808600,128.4147033691406200,552.2100830078125000,8.1176319122314450,43.1346282958984400,51,109,89,80,75,15207,2147742171,2147422491,2147999917,2147869613,2147621549,2147089334,2148238290,2147199616,28,4,13,61891
1352064967,5810,398.0499877929687500,8.3481998443603520,34.1066017150878900,141.4945983886718800,544.8419799804688000,8.3522882461547850,41.8564605712890600,50,107,88,82,75,15205,2147741330,2147422811,2148001883,2147867574,2147617124,2147091483,2148235776,2147202797,3004,4,13,13609
1352065116,5811,385.6400146484375000,8.9121999740600590,34.1045989990234400,159.6184997558593800,527.2595825195312000,8.9104747772216800,40.0851593017578100,50,104,88,81,75,15208,2147744109,2147420361,2148000356,2147869147,2147617856,2147093302,2148233737,2147206217,3532,4,13,7684
1352065243,5808,373.7799987792969000,9.4510002136230470,34.1152000427246100,174.3208007812500000,510.1300964355469000,9.4520044326782230,38.7003517150878900,49,104,87,80,74,15204,2147737462,2147422171,2148000448,2147868580,2147616009,2147093028,2148226121,2147204964,522,4,13,46393
1352065360,5806,362.5299987792969000,9.9956998825073240,34.1228981018066400,186.3603973388672000,493.6690979003906000,9.9704065322875980,37.5911293029785160,50,107,89,80,72,15207,2147736228,2147423945,2148002797,2147869586,2147614299,2147101824,2148229083,2147201280,706,5,13,11971
1352065475,5808,351.6199951171875000,10.3659000396728520,34.1375007629394500,194.7086029052734400,480.8998107910156000,10.3712701797485350,36.8335189819335940,49,103,87,81,71,15205,2147734939,2147425636,2148004297,2147871780,2147611739,2147097746,2148227017,2147203328,1148,4,13,30545
1352065602,5808,340.0199890136719000,10.7416000366210940,34.1530990600585940,202.8076019287109400,468.8870849609375000,10.7474203109741210,36.1312904357910160,50,104,87,80,70,15205,2147734793,2147422473,2148002569,2147871149,2147608411,2147109833,2148226468,2147203446,2183,4,13,60405
1352065719,5807,328.9800109863281000,11.0698995590209960,34.1689987182617200,207.3867034912109400,458.5978088378906000,11.0689001083374020,35.6882591247558600,49,104,84,79,70,15206,2147731611,2147423707,2148001197,2147867776,2147607734,2147111140,2148221979,2147203977,3109,3,13,35750
1352065834,5805,317.9400024414062500,11.2589998245239260,34.1786994934082000,209.9486999511718800,452.7261962890625000,11.2520704269409180,35.4417991638183600,49,103,87,79,70,15204,2147730377,2147422866,2148002880,2147871506,2147604233,2147110326,2148219968,2147208813,2787,4,14,33256
1352065949,5809,306.7699890136719000,11.6096000671386720,34.1934013366699200,211.4405975341797000,441.5190124511719000,11.6011400222778320,35.1749382019043000,49,103,88,80,69,15204,2147726829,2147423250,2148001389,2147868992,2147602349,2147110427,2148215661,2147206336,3483,4,14,63772
1352066066,5808,296.2999877929687500,12.5957002639770500,34.2582015991210940,215.9420013427734400,409.6433105468750000,12.5903501510620120,34.4139900207519500,48,103,89,81,69,15207,2147727725,2147423908,2148013952,2147869641,2147601974,2147115766,2148220516,2147205677,3381,4,14,54803
1352066193,5808,285.9200134277344000,12.9990997314453120,34.2914009094238300,218.3043975830078000,396.7473144531250000,12.9891796112060550,34.0821304321289060,49,103,86,79,69,15200,2147725101,2147427629,2148018669,2147868489,2147596571,2147129024,2148211392,2147206473,2254,4,14,19320
1352066334,5810,275.0199890136719000,13.4155998229980470,34.3249015808105500,218.2023925781250000,383.3558044433594000,13.4025697708129880,33.8825302124023440,47,102,90,80,68,15201,2147722761,2147427474,2148025956,2147871085,2147594633,2147131830,2148218468,2147206317,838,4,14,49446
1352066485,5808,264.0199890136719000,13.9035997390747070,34.3661003112793000,217.0070953369140600,366.4089050292969000,13.9246997833251950,33.6908302307128900,48,102,88,80,67,15201,2147723510,2147428205,2148024566,2147874340,2147592356,2147133933,2148216219,2147208969,144,4,14,31753
1352066644,5805,252.8500061035156200,14.6201000213623050,34.4337005615234400,217.9562988281250000,344.2921142578125000,14.6046199798583980,33.3072319030761700,49,107,88,79,67,15201,2147719954,2147440164,2148061266,2147869165,2147589540,2147144173,2148233536,2147208429,2457,3,14,38105
1352066783,5805,241.1600036621093800,15.7034997940063480,34.5401992797851560,213.9776000976562500,309.2208862304687500,15.6799297332763670,33.0107612609863300,49,103,88,80,67,15198,2147717366,2147450541,2148094427,2147871570,2147585618,2147160813,2148242880,2147212982,1613,3,14,17655
1352066954,5808,227.6699981689453000,16.3703994750976560,34.6115989685058600,212.3896026611328000,285.2890930175781000,16.4121894836425780,32.7522697448730500,49,104,87,81,67,15192,2147717778,2147471030,2148146907,2147871597,2147583040,2147171675,2148258093,2147214482,139,2,14,47602
1352067082,5806,215.9900054931640600,17.3871002197265620,34.7226982116699200,211.7577972412109400,254.1430053710937500,17.3640003204345700,32.3442802429199200,50,104,88,80,65,15191,2147722578,2147500114,2148210413,2147869750,2147579456,2147192054,2148286893,2147219227,2383,3,15,44157
1352067197,5809,205.4400024414062500,18.5879993438720700,34.8655014038085940,209.3607940673828000,214.9138946533203000,18.5620498657226560,31.9294891357421880,52,105,88,79,65,15189,2147724041,2147540050,2148304694,2147871259,2147579931,2147224868,2148334966,2147222564,1622,2,14,49421
1352067308,5807,197.9199981689453000,19.2367000579834000,34.9562988281250000,211.5688934326172000,193.4170074462890600,19.2187004089355470,31.5130290985107420,54,106,87,80,64,15182,2147731620,2147584438,2148396854,2147873042,2147576640,2147257536,2148364297,2147226221,634,3,14,22131
1352067375,5809,193.8699951171875000,19.7159004211425780,35.0208015441894500,212.5480957031250000,177.7937011718750000,19.6961994171142580,31.2479190826416000,57,104,86,80,64,15179,2147736740,2147615844,2148454912,2147874432,2147573933,2147277184,2148393828,2147227757,1207,3,15,58794
1352067442,5808,190.0500030517578000,20.0569000244140620,35.0770988464355500,214.7984008789062500,165.5554962158203000,20.0704498291015620,30.9630699157714840,56,105,86,80,63,15178,2147747401,2147644882,2148515867,2147873526,2147577298,2147299419,2148416704,2147229184,1474,2,15,51504
1352067509,5806,186.0200042724609400,20.1558990478515620,35.0871009826660160,216.9665069580078000,162.5283966064453000,20.1630592346191400,30.8084602355957030,57,106,89,80,63,15177,2147758043,2147685988,2148592384,2147872557,2147578733,2147328073,2148456539,2147234148,1730,3,14,17470
1352067587,5805,181.5299987792968800,20.4433002471923830,35.1180992126464840,217.3202972412109400,154.4174957275390600,20.4112701416015620,30.6819801330566400,59,112,89,80,63,15175,2147769435,2147731602,2148684013,2147872054,2147587904,2147356946,2148498889,2147237504,2130,3,15,62030
1352067666,5810,177.1000061035156200,20.4652004241943360,35.1225013732910160,218.3106994628906200,152.8457946777343800,20.4593906402587900,30.6095790863037100,60,105,87,80,64,15172,2147788553,2147791899,2148789677,2147870866,2147591222,2147387657,2148550089,2147241225,2909,2,15,43182
1352067733,5807,172.6499938964843800,20.4827003479003900,35.1258010864257800,218.5959014892578000,152.0261993408203000,20.4844799041748050,30.5837402343750000,60,106,88,80,63,15172,2147808137,2147861888,2148923849,2147874733,2147600201,2147434349,2148613321,2147245741,3361,2,15,34841
1352067788,5810,168.8099975585937500,20.6023998260498050,35.1367988586425800,218.4738006591797000,148.1369018554687500,20.6035709381103500,30.5386199951171880,61,106,89,80,62,15174,2147834294,2147933339,2149061110,2147875757,2147609444,2147474852,2148679771,2147252736,53,2,16,32764
1352067843,5809,165.2100067138672000,20.8075008392334000,35.1520996093750000,218.4423980712890600,142.3397979736328000,20.7811203002929700,30.4636802673339840,64,106,87,80,63,15170,2147859364,2148008301,2149197101,2147875739,2147621211,2147517842,2148748781,2147257883,458,3,15,48111
1352067922,5810,161.3500061035156200,20.8722991943359380,35.1450004577636700,217.0727996826172000,140.1038970947265600,20.8496303558349600,30.5049095153808600,68,106,88,81,63,15162,2147887506,2148084955,2149335661,2147875712,2147633819,2147563675,2148809856,2147261741,464,3,15,16636
1352068073,5806,158.6300048828125000,20.9267997741699220,35.1418991088867200,215.5332946777343800,137.8415985107422000,20.9189491271972660,30.5555305480957030,70,107,89,80,63,15163,2147911332,2148143286,2149439049,2147879003,2147644406,2147600768,2148858267,2147265965,955,2,15,60103
1352068292,5810,153.8399963378906200,21.1984004974365230,35.1637992858886700,216.2241973876953000,129.8372955322265600,21.1643295288085940,30.4136009216308600,72,110,86,81,63,15157,2148011026,2148363693,2149798701,2147880173,2147677860,2147713746,2149012818,2147276416,456,2,15,877
1352068395,5811,149.8300018310547000,21.4810009002685550,35.1893005371093750,216.5438995361328000,122.5836029052734400,21.3868408203125000,30.3016204833984380,76,111,91,82,63,15151,2148093568,2148550454,2150106377,2147881133,2147714962,2147811958,2149141056,2147286336,1199,2,16,19526
1352068533,5808,145.7100067138672000,21.7915000915527340,35.2295989990234400,220.9743041992187500,109.8582992553711000,21.7775402069091800,29.9086799621582030,81,115,91,81,62,15146,2148197357,2148755081,2150426185,2147887442,2147752228,2147915602,2149283520,2147301504,2252,2,15,34519
1352068636,5801,142.0099945068359400,22.1312007904052730,35.2697982788085940,225.1221008300781200,98.8607406616211000,22.1156005859375000,29.5597896575927730,86,115,89,82,62,15136,2148317120,2148996836,2150805138,2147889142,2147802377,2148037275,2149437339,2147311753,1849,2,15,63763
1352068787,5810,138.3099975585937500,22.4587001800537100,35.2725982666015600,229.4338989257812500,89.7795181274414000,22.3950500488281250,29.2339706420898440,98,115,88,83,62,15125,2148441856,2149208109,2151122742,2147894829,2147852397,2148136621,2149562029,2147321938,2238,2,16,63115
1352068926,5810,133.7700042724609400,22.6340007781982420,35.2661018371582000,231.0695037841797000,82.5034637451171900,22.6191692352294920,29.0630702972412100,105,118,87,82,62,15113,2148726555,2149727360,2151906121,2147901120,2147959158,2148361298,2149849856,2147345865,1927,2,15,20587
1352069017,5811,129.3999938964843800,22.7222995758056640,35.2594985961914060,231.8390045166015600,79.7636871337890600,22.7036094665527340,28.9919700622558600,105,116,92,82,62,15107,2149053668,2150299392,2152745152,2147910619,2148083200,2148609170,2150168768,2147374326,1849,3,15,32357
1352069096,5806,125.1100006103515600,22.8022994995117200,35.2495002746582000,232.1063995361328000,76.9816284179687500,22.7893905639648440,28.9440498352050780,111,117,88,83,62,15112,2149421595,2150887186,2153604836,2147925705,2148216612,2148863515,2150491209,2147403666,2598,2,16,1972
1352069165,5807,121.3300018310546900,22.8115997314453120,35.2458000183105500,232.4210052490234400,76.4561614990234400,22.8055896759033200,28.9224090576171880,115,116,88,82,60,15108,2149797760,2151494464,2154475968,2147938944,2148360109,2149131876,2150833289,2147432822,2926,2,16,57203
1352069244,5809,117.1500015258789000,22.9008007049560550,35.2414016723632800,232.3442993164062500,73.9543914794921900,22.8827590942382800,28.8944797515869140,114,116,90,82,63,15103,2150355876,2152372690,2155660013,2147957165,2148574985,2149511076,2151290294,2147472429,2514,2,16,24424
1352069323,5811,113.6900024414062500,22.9922008514404300,35.2430992126464840,233.0984954833984400,71.4948196411132800,22.9586391448974600,28.8279304504394530,115,117,89,82,62,15097,2150926089,2153203081,2156781065,2147978166,2148783113,2149866441,2151712192,2147515565,2791,2,16,10581
1352069438,5809,110.4300003051757800,23.1536998748779300,35.2386016845703100,234.9004974365234400,65.5662231445312500,23.1416606903076170,28.6692504882812500,123,118,90,82,62,15093,2151594541,2154168018,2158047680,2148008100,2149044105,2150293174,2152198226,2147559360,44,2,15,54946
1352069639,5809,106.4599990844726600,23.4074001312255860,35.2536010742187500,235.6869049072265600,57.9186096191406250,23.3779697418212900,28.5366897583007800,128,116,88,85,61,15077,2152800356,2155932278,2160243172,2148054829,2149506176,2151009161,2152978843,2147639744,2163,2,16,29956
1352069862,5809,101.9700012207031200,23.6882991790771500,35.2513008117675800,234.3341979980468800,49.0436210632324200,23.6525306701660160,28.4880790710449220,126,119,91,82,59,15074,2154252845,2157995922,2162878619,2148124297,2150053229,2151857069,2153945398,2147734610,993,2,15,39506
1352069953,5808,99.2900009155273400,23.9456996917724600,35.2444000244140600,235.0883026123047000,42.2547798156738300,23.8628005981445300,28.3681907653808600,134,117,92,84,61,15070,2155072859,2159077138,2164206482,2148161654,2150337993,2152282020,2154466294,2147787730,3523,2,16,32428
1352070175,5810,97.4000015258789000,24.1187000274658200,35.2159004211425800,237.0800018310547000,34.2227210998535160,24.1118602752685550,28.1769504547119140,122,116,88,83,60,15070,2156229732,2160510244,2165663771,2148214500,2150778560,2152858258,2155057051,2147850368,3216,2,16,29630
1352070254,5807,94.8799972534179700,24.1627998352050780,35.1954994201660160,237.3032989501953000,32.9794082641601560,24.1504402160644530,28.1515693664550780,125,115,89,82,61,15074,2158000676,2162890916,2168415424,2148289654,2151487360,2153885257,2156122880,2147961645,550,1,16,58198
1352070309,5814,93.1299972534179700,24.2215995788574220,35.1833000183105500,237.4309997558593800,31.1150398254394530,24.2083091735839840,28.1225795745849600,120,119,89,81,61,15077,2159042934,2164152100,2169716242,2148334454,2151938587,2154514953,2156770450,2148030820,452,2,16,13109
1352070388,5807,91.6800003051757800,24.3721008300781250,35.1771011352539060,237.1134033203125000,26.6443500518798830,24.3471508026123050,28.0815792083740230,104,115,90,83,61,15080,2159887899,2165112219,2170597833,2148381558,2152242130,2154859126,2157057673,2148061979,2943,2,16,35747
1352070610,5807,89.5400009155273400,24.7600002288818360,35.1545982360839840,237.8582000732422000,13.7815599441528320,24.7472000122070300,27.8887290954589840,92,115,88,83,61,15069,2162729773,2168461385,2173658962,2148483995,2153701760,2156739008,2158721700,2148227035,1560,2,16,27580
1352070713,5809,86.9599990844726600,24.7744007110595700,35.1487007141113300,238.2380981445312500,13.0720796585083000,24.7692909240722660,27.8628292083740230,88,116,91,82,59,15082,2164770806,2171022336,2176503817,2148600667,2154678729,2158127232,2160097517,2148369078,1406,2,16,40379
1352070792,5810,83.8799972534179700,24.7982006072998050,35.1472015380859400,238.3403930664062500,12.3057498931884770,24.7931499481201170,27.8488597869873050,88,115,90,83,59,15077,2167818212,2174401280,2180160064,2148819245,2156051629,2159951277,2161864265,2148558720,725,2,16,658
1352070847,5806,81.0400009155273400,24.8150005340576170,35.1469001770019500,238.4868011474609400,11.8247299194335940,24.8081398010253900,27.8362197875976560,84,117,89,82,60,15079,2170612553,2177460507,2183292470,2149020379,2157413129,2161708955,2163572406,2148737014,139,2,16,55859
1352070902,5807,78.2699966430664000,24.8852996826171880,35.1543006896972660,238.3731994628906200,9.6620674133300780,24.8755092620849600,27.8147792816162100,82,113,92,83,59,15078,2174097042,2181098779,2186755446,2149269970,2159123739,2163791222,2165421750,2148951104,184,2,16,56675
1352070957,5807,75.8099975585937500,25.1023998260498050,35.1780014038085940,238.1360931396484400,2.1096560955047607,25.1110000610351560,27.7324695587158200,77,114,90,82,59,15080,2177940461,2185269504,2190927990,2149522870,2160948288,2166020123,2167381942,2149169252,235,1,16,28111
1352071012,5805,73.8300018310546900,25.2292003631591800,35.1930999755859400,238.9483032226562500,-1.4645930528640747,25.2225608825683600,27.6521091461181640,76,115,90,84,59,15081,2180988013,2188470893,2194004306,2149757248,2162648896,2168032512,2169093220,2149361636,369,2,16,7774
1352071067,5812,72.3000030517578100,25.2658004760742200,35.1973991394043000,239.3009948730468800,-2.6961030960083010,25.2610206604003900,27.6212406158447270,75,115,93,83,59,15082,2183568347,2190671926,2195867318,2149990866,2164147757,2169653266,2170370678,2149522093,31,2,16,44791
1352071136,5810,70.1800003051757800,25.3523006439209000,35.2052001953125000,239.5581054687500000,-5.2591409683227540,25.3410892486572270,27.5784492492675780,73,116,92,84,59,15079,2188682084,2196069165,2201060790,2150375707,2166804169,2172690157,2172943003,2149816557,3451,1,16,101
1352071203,5808,68.0400009155273400,25.5105991363525400,35.2109985351562500,239.4252929687500000,-10.0441503524780270,25.4906692504882800,27.5257606506347660,73,115,90,83,57,15077,2193038491,2200047945,2204423085,2150764617,2169198226,2175204123,2174892480,2150060086,3122,2,16,34443
1352071270,5807,66.1999969482421900,25.6905994415283200,35.2356986999511700,239.2920989990234400,-14.4612398147583000,25.6288795471191400,27.4774608612060550,71,119,90,84,61,15074,2196617874,2203625910,2207550473,2151158939,2171517403,2177572754,2176656539,2150282834,2743,1,16,36147
1352071361,5817,64.4000015258789000,25.8831996917724600,35.2501983642578100,239.5135955810547000,-21.9256305694580080,25.8627109527587900,27.3763504028320300,73,117,93,83,58,15073,2200674569,2208192786,2211645138,2151615771,2174679588,2180891081,2179100059,2150618651,1788,2,16,52537
1352071487,5809,61.8499984741210940,26.0195007324218750,35.2504997253418000,239.8562011718750000,-27.4002494812011720,26.0344390869140620,27.2945098876953120,71,119,90,84,56,15068,2208739492,2216221897,2219320201,2152616822,2180725997,2186975515,2183679323,2151214336,1514,2,16,8724
1352071542,5807,60.0999984741210940,26.1945991516113280,35.2464981079101560,239.7164001464843800,-31.8549098968505860,26.1743297576904300,27.2465095520019530,71,121,93,85,56,15057,2213781979,2221080713,2224040228,2153153344,2184607862,2190892800,2186624192,2151546816,1165,2,16,35241
1352071621,5805,58.3199996948242200,26.2807006835937500,35.2448005676269500,239.3067016601562500,-34.8583488464355500,26.2687091827392580,27.2279796600341800,69,121,90,85,57,15048,2218128182,2224797824,2227300041,2153715218,2188570029,2194601801,2189295350,2151921188,699,2,16,40194
1352071759,5808,56.1500015258789060,26.5256996154785160,35.2317008972168000,236.7541961669922000,-42.8116188049316400,26.5189609527587900,27.2444095611572270,67,121,93,85,54,15042,2222596068,2228740214,2230222290,2154288713,2195293714,2200712786,2193577462,2152365302,3130,1,16,26801
1352071838,5803,54.2700004577636700,26.7341003417968750,35.2182998657226560,233.6493988037109400,-49.1389198303222660,26.7183494567871100,27.3067207336425780,66,120,95,84,56,15055,2230121097,2237609060,2239358564,2156010733,2202583844,2207109458,2197739218,2153036653,2630,2,16,8000
1352071929,5810,52.4300003051757800,26.7681007385253900,35.2140998840332000,231.5258026123047000,-50.5597496032714840,26.7631702423095700,27.3858890533447270,63,120,89,85,56,15052,2232333421,2239811017,2241045330,2156873362,2210048173,2214001691,2202267264,2153719177,2257,2,16,59138
1352072020,5804,50.2900009155273440,26.7761001586914060,35.2142982482910160,230.5489044189453000,-50.9127197265625000,26.7742996215820300,27.4262504577636720,61,120,93,85,54,15063,2238214080,2245836763,2246637622,2158033069,2218584950,2221593554,2207152146,2154368457,2209,2,17,57057
1352072098,5810,47.5200004577636700,26.7775001525878900,35.2142982482910160,230.2147979736328000,-50.9571685791015600,26.7756996154785160,27.4411506652832030,61,118,95,85,57,15049,2246466596,2254424118,2254948361,2160650496,2231794752,2234231314,2216036461,2155648603,2155,2,16,36585
1352072153,5809,44.6699981689453100,26.7791996002197270,35.2140998840332000,230.0997924804687500,-51.0299491882324200,26.7779998779296880,27.4456100463867200,60,117,91,83,57,15048,2260298093,2270705152,2272976429,2164778916,2245542326,2246931611,2224685686,2157182710,2108,1,16,47244
1352072208,5811,41.6500015258789060,26.7800006866455080,35.2131004333496100,230.1605072021484400,-51.1168899536132800,26.7807407379150400,27.4416999816894530,58,120,90,84,55,15040,2263384036,2272683547,2274648877,2167101312,2256476416,2256799908,2231266660,2158365092,2388,2,17,45171
1352072263,5808,38.6599998474121100,26.7803993225097660,35.2125015258789060,230.2227935791015600,-51.2039184570312500,26.7834892272949220,27.4376907348632800,59,119,89,82,59,15052,2279564333,2290506322,2294123803,2173941156,2272290029,2271485339,2241698221,2160433801,2537,2,16,65188
1352072318,5809,35.6100006103515600,26.7800006866455080,35.2126998901367200,230.3025054931640600,-51.2485694885253900,26.7849006652832030,27.4334506988525400,58,118,91,84,58,15053,2287607606,2298089755,2301145481,2178620260,2290453869,2288126372,2253126006,2162702665,2468,2,16,20121
1352072373,5808,32.5400009155273440,26.7817993164062500,35.2122001647949200,230.4201049804687500,-51.3388595581054700,26.7877502441406250,27.4269695281982420,57,117,93,84,57,15055,2301228242,2312139666,2315950253,2187620461,2305252672,2301394642,2262225362,2164929627,2598,2,17,43556
1352072430,5804,29.4099998474121100,26.7830009460449220,35.2118988037109400,230.4158935546875000,-51.3971710205078100,26.7895908355712900,27.4264106750488280,56,117,92,83,57,15054,2315544064,2328050139,2333088374,2199153819,2326989549,2321725513,2276085476,2168522422,2475,2,17,38212